Temp
9 10 10 10 10 10 10 10 10 10 10 10 11 11 11 11 11 11 11 9 9 9 9 8 9 8 8 8 8 9 9 9 9 9 9 9 9 9 9 8 8 9 9 9 9 9 8 8 9
10 10 10 10 9 10 11 11 11 10 10 10 10 10 10 11 11 11 11 10 9 9 9 9 9 8 8 8 8 9 9 9 8 9 8 8 8 8 8 9 9 9 9 9 9 9 8 8 9
10 10 10 9 9 10 10 10 11 10 11 9 10 10 11 11 11 11 11 10 9 9 9 8 8 8 8 8 8 9 8 8 8 8 8 8 8 9 8 9 8 8 8 8 9 8 8 8 8
10 10 10 10 10 10 10 10 10 10 10 10 10 10 11 11 11 11 11 10 9 9 9 8 8 8 9 9 9 8 8 8 8 8 8 8 9 8 8 8 8 8 8 8 8 8 8 8 8
10 10 10 10 10 10 10 9 9 9 10 10 10 11 11 11 10 11 10 10 9 9 9 8 8 9 9 9 9 9 9 9 9 9 9 9 8 8 8 8 8 8 9 9 9 8 8 8 8
10 10 10 10 10 10 10 9 9 10 11 10 11 11 11 11 10 10 10 10 9 9 9 9 9 9 9 9 9 9 9 9 9 9 9 9 8 8 8 8 8 9 9 8 8 8 8 8 7
10 10 10 10 10 10 10 10 10 9 10 11 11 11 11 11 10 10 10 9 9 8 9 9 9 9 9 9 9 9 9 9 9 9 9 9 8 8 8 8 8 8 8 8 8 8 7 7 8
11 10 11 10 10 10 10 10 10 10 11 11 11 11 11 11 10 10 10 9 9 8 8 9 9 9 9 9 9 9 9 9 9 9 9 9 8 8 8 8 8 8 8 8 7 7 7 8 8
11 11 11 10 10 10 10 10 11 10 11 11 11 11 11 11 10 10 10 10 9 9 9 9 9 9 9 9 9 9 9 9 9 9 9 9 8 8 8 8 8 8 8 8 7 7 7 7 8
11 11 10 11 10 10 10 10 10 10 11 11 11 11 11 11 11 10 11 11 10 10 9 9 9 9 9 9 9 9 9 9 9 9 9 9 8 8 8 8 8 8 8 8 7 7 7 7 7
11 11 11 11 11 11 10 11 11 10 10 10 11 12 11 12 11 10 10 10 10 10 9 9 9 9 9 9 9 9 9 9 9 9 9 9 9 8 8 8 8 7 8 7 7 7 7 7 7
12 11 11 11 11 11 10 10 10 10 10 10 10 10 11 11 11 10 10 10 10 10 9 9 9 9 9 9 9 9 9 9 8 8 8 8 8 8 8 8 8 8 7 7 7 7 7 7 7
12 11 11 11 11 11 11 10 11 10 10 10 10 10 10 11 10 10 9 9 9 10 9 9 9 9 8 9 9 9 9 9 8 8 7 7 8 7 8 8 8 8 8 8 7 7 7 7 7
10 10 11 11 12 11 11 11 11 10 10 11 11 11 10 10 10 9 9 9 9 9 9 9 9 9 8 9 9 9 9 8 8 8 8 7 7 7 7 7 7 7 7 7 7 7 7 7 7
10 10 11 12 12 12 11 11 12 11 11 11 10 10 10 9 9 9 9 9 9 9 9 9 9 9 9 8 8 9 9 8 8 8 7 7 8 8 7 7 7 6 6 7 7 7 7 6 7
9 10 11 12 13 12 11 12 12 11 10 11 11 11 10 9 9 9 8 8 8 8 9 9 9 9 9 9 8 9 9 8 8 8 8 7 7 8 8 7 7 7 6 6 6 6 6 6 7
9 10 11 12 12 11 11 11 12 12 11 11 11 11 10 9 8 8 8 8 8 8 8 8 9 9 9 9 8 8 8 8 9 8 8 8 8 8 8 8 7 7 6 6 6 6 6 6 6
9 10 11 11 12 11 11 13 12 12 13 12 12 12 11 9 9 8 8 8 7 7 7 8 8 9 9 9 8 8 8 9 9 9 9 8 8 8 8 7 7 7 6 5 5 6 6 6 6
9 10 11 11 11 11 12 12 12 12 12 13 12 11 11 10 9 8 8 8 7 7 7 7 8 9 9 9 9 9 9 9 9 9 9 8 8 8 8 8 7 7 6 6 6 5 6 6 6
9 10 11 11 11 12 12 13 14 13 12 12 12 12 11 11 9 8 8 8 8 7 8 8 7 8 8 8 8 8 8 8 9 9 9 8 8 8 8 8 8 7 6 6 5 5 5 5 6
9 10 10 11 11 12 12 13 14 13 12 11 11 11 10 10 10 9 8 9 8 8 8 8 8 8 8 8 9 9 9 8 9 9 9 9 8 8 8 8 8 7 6 6 6 5 5 6 6
9 9 10 10 10 11 12 11 13 13 12 12 12 11 11 10 10 9 9 9 9 9 9 8 8 8 8 9 9 9 9 9 9 9 9 9 9 8 8 8 8 7 7 6 6 5 5 5 6
8 9 9 10 10 10 12 11 13 12 12 13 12 12 12 11 10 10 10 9 9 9 9 9 8 8 8 9 10 10 9 9 8 9 9 9 9 9 8 8 8 8 8 7 6 6 5 6 6
9 9 9 10 10 9 12 12 14 13 14 14 13 13 12 12 11 11 11 9 9 9 9 9 8 8 8 8 9 10 10 9 9 9 9 9 9 9 9 9 8 8 8 7 7 6 6 6 6
9 9 8 7 7 7 12 12 12 13 14 14 13 12 13 13 13 12 12 11 10 10 9 9 9 8 8 8 9 9 10 10 10 9 9 9 10 9 9 8 8 8 8 8 8 7 6 6 6
9 10 9 7 4 8 11 12 12 12 13 14 14 13 13 12 12 12 12 11 11 10 10 9 9 9 8 8 9 9 9 10 10 10 10 9 9 9 9 9 9 8 8 8 8 7 7 7 7
9 9 10 10 8 9 10 11 11 12 12 13 14 14 14 13 12 12 12 12 11 11 10 9 9 9 9 9 9 10 10 10 10 10 10 10 9 9 10 9 9 9 9 9 9 8 8 7 7
9 9 10 10 6 8 8 7 8 11 12 13 13 13 14 14 13 11 12 12 11 10 10 9 9 9 9 10 9 10 10 10 10 10 10 10 9 9 9 9 9 9 9 9 9 9 9 8 8
8 8 9 9 9 5 4 5 6 8 10 12 13 13 14 15 14 12 11 11 11 10 11 10 9 9 9 9 9 9 10 10 10 10 10 10 10 10 10 10 9 9 9 9 9 9 9 9 8
7 6 8 9 7 8 7 5 6 7 8 10 12 13 14 14 14 13 12 11 11 10 11 10 10 9 9 9 8 8 9 10 10 10 10 10 10 10 10 10 10 9 9 9 9 9 9 9 9
Height
3151 3152 3154 3155 3160 3156 3154 3155 3155 3157 3158 3159 3162 3165 3167 3166 3169 3175 3174 3178 3182 3185 3188 3190 3193 3196 3198 3200 3202 3203 3203 3204 3205 3205 3205 3205 3205 3205 3204 3204 3205 3205 3205 3206 3206 3207 3209 3209 3210
3152 3153 3155 3155 3158 3156 3155 3154 3155 3155 3157 3159 3162 3165 3168 3169 3170 3170 3175 3179 3184 3188 3190 3192 3195 3198 3199 3201 3203 3204 3205 3206 3206 3206 3206 3206 3206 3206 3206 3206 3206 3206 3207 3207 3207 3209 3210 3211 3212
3153 3155 3157 3156 3157 3156 3155 3152 3151 3153 3157 3158 3164 3166 3168 3170 3172 3174 3178 3181 3186 3190 3193 3195 3196 3199 3201 3202 3204 3205 3206 3207 3208 3208 3208 3208 3207 3207 3207 3207 3207 3207 3208 3208 3209 3210 3211 3213 3214
3155 3156 3157 3156 3155 3154 3151 3152 3145 3153 3158 3160 3165 3168 3170 3171 3173 3176 3179 3184 3188 3192 3194 3197 3199 3201 3203 3205 3206 3206 3207 3209 3210 3210 3210 3210 3209 3209 3209 3209 3208 3209 3210 3210 3211 3211 3213 3216 3217
3156 3156 3156 3156 3153 3153 3152 3152 3145 3153 3159 3162 3165 3167 3169 3172 3174 3178 3182 3186 3190 3193 3196 3199 3201 3203 3205 3206 3207 3208 3209 3210 3211 3211 3211 3211 3211 3211 3211 3211 3211 3211 3210 3211 3213 3215 3217 3219 3220
3156 3157 3157 3157 3155 3154 3151 3152 3151 3158 3161 3163 3165 3168 3170 3171 3176 3181 3185 3189 3192 3196 3198 3200 3202 3204 3207 3208 3209 3210 3211 3212 3212 3213 3212 3213 3213 3214 3213 3214 3212 3212 3212 3214 3215 3217 3219 3221 3223
3157 3157 3157 3158 3157 3156 3153 3151 3159 3162 3164 3164 3164 3167 3171 3172 3178 3182 3187 3191 3194 3197 3200 3202 3204 3206 3208 3210 3211 3211 3212 3213 3214 3214 3214 3215 3216 3215 3216 3216 3215 3215 3216 3217 3219 3220 3222 3224 3225
3157 3158 3157 3158 3158 3156 3155 3154 3157 3161 3164 3166 3166 3166 3168 3172 3178 3183 3188 3192 3195 3198 3200 3203 3206 3207 3210 3210 3212 3213 3215 3215 3215 3216 3216 3217 3218 3218 3219 3218 3218 3218 3220 3221 3222 3223 3224 3228 3228
3158 3159 3159 3159 3158 3159 3157 3158 3159 3163 3165 3165 3166 3166 3171 3174 3179 3184 3188 3192 3195 3198 3201 3204 3207 3209 3211 3212 3214 3215 3216 3218 3217 3218 3218 3219 3220 3220 3221 3221 3221 3222 3222 3224 3225 3227 3228 3230 3230
3157 3159 3159 3159 3160 3160 3160 3160 3160 3163 3164 3166 3167 3169 3173 3176 3180 3185 3189 3193 3196 3199 3202 3205 3208 3210 3212 3213 3215 3217 3218 3219 3219 3220 3221 3222 3223 3222 3223 3224 3225 3225 3226 3227 3229 3230 3231 3232 3233
3157 3158 3159 3160 3161 3161 3162 3162 3164 3164 3166 3166 3169 3172 3175 3178 3183 3188 3192 3196 3198 3200 3203 3206 3208 3211 3213 3214 3216 3218 3219 3221 3222 3223 3224 3225 3225 3226 3225 3227 3228 3229 3230 3230 3232 3233 3234 3235 3236
3157 3158 3160 3162 3160 3161 3162 3162 3163 3164 3167 3169 3172 3176 3177 3180 3184 3189 3192 3195 3198 3200 3204 3206 3209 3212 3214 3215 3217 3219 3221 3223 3224 3225 3226 3227 3228 3228 3228 3229 3230 3232 3232 3233 3234 3235 3236 3237 3238
3156 3159 3159 3160 3161 3160 3161 3162 3162 3163 3165 3169 3171 3175 3178 3181 3185 3189 3193 3195 3198 3202 3204 3207 3209 3212 3215 3217 3219 3221 3222 3224 3226 3227 3228 3228 3229 3231 3231 3230 3231 3233 3234 3236 3236 3237 3238 3239 3239
3155 3156 3158 3159 3161 3160 3161 3162 3162 3163 3166 3168 3171 3175 3178 3181 3185 3188 3191 3195 3199 3201 3204 3207 3210 3212 3215 3218 3220 3222 3224 3225 3227 3228 3228 3230 3231 3232 3233 3233 3233 3234 3235 3236 3238 3239 3239 3240 3241
3154 3155 3157 3160 3159 3159 3161 3163 3163 3163 3166 3164 3169 3174 3178 3181 3184 3188 3192 3196 3199 3201 3204 3207 3210 3212 3216 3219 3221 3223 3225 3226 3228 3230 3231 3231 3232 3233 3233 3235 3235 3235 3236 3238 3239 3241 3241 3241 3242
3153 3155 3157 3159 3159 3159 3162 3163 3164 3164 3165 3167 3166 3172 3176 3180 3184 3188 3192 3196 3197 3200 3202 3205 3209 3212 3216 3219 3222 3224 3226 3228 3229 3231 3231 3232 3233 3234 3234 3236 3236 3238 3238 3239 3241 3241 3243 3243 3244
3151 3154 3156 3158 3158 3159 3162 3163 3164 3165 3165 3166 3166 3169 3174 3179 3182 3186 3191 3194 3196 3199 3202 3205 3209 3212 3216 3219 3222 3225 3227 3229 3231 3232 3233 3233 3234 3234 3235 3237 3238 3239 3239 3240 3242 3243 3244 3245 3246
3150 3153 3155 3156 3158 3159 3160 3161 3163 3165 3165 3165 3166 3168 3171 3176 3180 3184 3189 3193 3196 3199 3203 3206 3210 3213 3216 3218 3221 3224 3227 3230 3232 3233 3234 3234 3235 3235 3236 3237 3240 3240 3241 3241 3242 3244 3246 3246 3247
3149 3151 3154 3156 3157 3158 3159 3159 3160 3164 3165 3166 3166 3167 3169 3175 3180 3184 3189 3192 3196 3199 3203 3206 3209 3213 3216 3219 3222 3224 3227 3230 3232 3233 3234 3234 3236 3236 3237 3238 3240 3241 3242 3243 3244 3245 3247 3248 3249
3147 3150 3152 3156 3157 3157 3156 3156 3156 3157 3161 3164 3167 3167 3168 3171 3176 3181 3186 3190 3194 3198 3202 3206 3209 3213 3216 3219 3222 3224 3227 3230 3231 3232 3235 3235 3236 3237 3238 3239 3240 3241 3243 3244 3245 3246 3248 3250 3251
3145 3147 3151 3154 3155 3156 3154 3153 3153 3154 3156 3161 3164 3166 3168 3169 3172 3177 3182 3187 3192 3196 3200 3205 3208 3212 3215 3218 3221 3223 3226 3229 3231 3233 3235 3235 3236 3237 3238 3238 3239 3241 3242 3244 3246 3247 3249 3250 3252
3143 3147 3150 3152 3153 3153 3153 3154 3151 3151 3154 3157 3160 3163 3166 3168 3170 3174 3178 3184 3189 3194 3199 3203 3207 3211 3213 3216 3219 3222 3227 3229 3233 3233 3234 3236 3237 3238 3238 3239 3240 3241 3243 3244 3246 3247 3250 3251 3253
3143 3146 3149 3151 3151 3152 3151 3154 3151 3151 3152 3153 3157 3161 3164 3167 3168 3170 3175 3181 3187 3192 3197 3201 3205 3209 3211 3214 3217 3220 3224 3228 3230 3233 3233 3236 3237 3239 3239 3239 3240 3241 3243 3244 3245 3247 3249 3251 3253
3141 3144 3146 3148 3149 3151 3149 3152 3151 3151 3152 3154 3156 3160 3162 3165 3167 3168 3174 3179 3185 3190 3194 3199 3202 3206 3209 3213 3215 3219 3222 3226 3229 3231 3233 3236 3237 3239 3239 3240 3241 3242 3242 3244 3245 3247 3248 3250 3252
3137 3141 3144 3148 3149 3148 3146 3150 3150 3149 3149 3148 3150 3155 3159 3163 3164 3167 3170 3173 3179 3184 3189 3195 3200 3202 3206 3211 3214 3218 3221 3224 3227 3230 3233 3235 3237 3238 3239 3240 3242 3241 3242 3244 3246 3247 3248 3250 3252
3132 3135 3137 3141 3147 3143 3145 3145 3146 3147 3147 3147 3147 3149 3152 3158 3161 3164 3167 3171 3176 3182 3186 3191 3196 3199 3203 3208 3212 3216 3219 3222 3225 3228 3231 3234 3236 3237 3238 3240 3241 3242 3243 3244 3246 3247 3248 3250 3252
3128 3130 3136 3137 3139 3140 3142 3144 3144 3144 3145 3146 3146 3146 3150 3153 3157 3161 3163 3168 3173 3178 3183 3188 3194 3198 3200 3205 3209 3213 3216 3219 3223 3226 3228 3231 3234 3236 3237 3238 3240 3241 3243 3244 3245 3246 3248 3249 3251
3125 3128 3132 3133 3140 3141 3142 3143 3142 3141 3141 3143 3143 3144 3145 3148 3152 3157 3161 3165 3171 3176 3182 3187 3191 3195 3197 3203 3207 3210 3213 3217 3220 3223 3226 3229 3231 3234 3235 3236 3238 3240 3241 3243 3245 3246 3248 3249 3250
3123 3124 3127 3130 3132 3134 3143 3146 3144 3142 3141 3140 3140 3141 3142 3143 3147 3151 3156 3162 3167 3173 3177 3183 3188 3192 3193 3198 3204 3207 3210 3213 3217 3220 3223 3227 3228 3230 3232 3234 3236 3238 3240 3242 3244 3246 3247 3249 3250
3121 3122 3124 3126 3131 3131 3134 3145 3143 3141 3140 3140 3139 3138 3139 3139 3142 3147 3151 3156 3160 3166 3173 3178 3182 3186 3191 3195 3200 3203 3206 3209 3212 3216 3220 3223 3226 3228 3229 3232 3233 3235 3238 3239 3242 3244 3245 3246 3248
Wind_Speed
7 8 8 5 3 3 6 5 6 8 8 6 12 17 19 8 5 3 25 27 26 25 24 22 20 17 17 15 12 9 6 6 6 6 5 5 5 5 4 3 2 2 3 5 5 6 7 7 7
7 7 5 3 2 3 3 8 13 8 10 12 21 8 15 8 5 13 26 28 26 24 22 20 19 15 14 12 9 6 7 8 7 7 6 5 4 3 1 1 1 3 5 7 8 9 9 10 11
7 5 2 1 3 5 3 11 16 9 7 16 16 10 13 5 3 22 23 28 26 23 21 18 17 12 10 11 8 8 7 7 6 6 5 4 3 2 2 3 4 5 6 8 9 11 12 13 14
6 5 3 1 5 9 12 15 13 28 9 14 16 9 13 8 5 23 24 25 25 22 20 18 15 12 11 10 10 7 6 5 6 5 3 2 4 7 8 9 8 6 6 8 9 12 14 16 15
6 4 2 7 6 7 7 13 8 24 15 13 14 10 11 6 16 24 24 24 22 19 18 16 13 12 12 10 9 7 6 5 5 3 2 5 9 10 10 9 8 6 6 8 10 13 15 17 16
5 4 5 9 12 4 5 3 7 26 16 16 10 9 6 15 27 26 24 23 21 16 15 13 13 13 11 9 8 8 6 4 3 3 3 9 11 11 11 10 10 9 10 11 14 16 17 16 14
4 5 6 8 14 6 4 5 13 10 11 11 7 9 10 23 30 27 24 23 20 16 13 12 13 12 10 8 8 8 6 4 4 5 6 11 11 11 13 13 15 16 15 15 18 19 19 16 12
7 7 10 11 16 7 1 5 11 11 10 6 5 5 19 29 30 28 25 21 18 15 13 13 12 11 10 8 8 7 5 4 5 6 9 11 12 12 13 15 17 18 18 17 18 18 15 12 12
8 6 9 12 16 13 7 8 16 15 13 10 6 3 24 30 28 28 25 21 19 17 15 15 12 11 10 8 7 7 4 6 8 8 10 11 13 13 12 14 16 17 19 19 19 17 17 15 12
10 8 8 11 14 15 5 5 10 13 14 15 11 13 27 27 25 26 22 19 17 15 15 16 13 11 10 9 6 6 5 8 8 8 10 11 12 13 13 12 14 15 16 17 16 16 14 15 12
12 9 4 10 12 12 9 4 1 9 12 13 12 10 24 22 25 25 20 16 15 15 15 15 14 11 10 9 6 5 6 8 9 9 9 11 11 13 13 12 13 11 12 14 15 14 11 11 9
12 10 3 5 10 12 10 8 6 7 9 6 8 4 14 22 23 23 20 18 15 15 15 14 14 12 11 10 7 6 6 6 7 10 10 11 10 11 12 10 9 11 13 13 14 11 10 11 11
14 10 4 2 7 10 4 7 2 5 11 13 14 13 12 21 24 22 18 19 16 14 14 13 14 13 11 10 8 6 7 6 6 8 10 8 9 8 8 6 9 8 8 13 13 11 11 13 11
10 13 9 6 1 4 4 5 2 7 11 12 11 10 14 20 23 24 23 20 18 15 14 12 14 14 12 9 9 7 6 5 7 10 11 13 8 8 7 4 5 5 3 6 11 12 12 10 9
11 10 9 4 2 3 4 5 4 6 12 6 10 10 15 19 26 22 21 18 14 13 13 14 14 15 12 10 9 8 7 7 8 8 10 10 7 8 6 4 3 3 4 6 9 9 10 9 9
13 9 8 2 2 5 7 3 4 4 8 11 11 11 18 20 22 25 21 17 14 10 14 18 16 16 14 11 9 8 9 8 10 8 8 8 7 7 6 5 4 5 6 6 5 6 11 8 8
11 5 8 4 5 4 5 1 2 2 4 7 12 14 16 20 25 26 23 17 10 11 14 16 15 15 14 12 11 9 11 8 7 9 7 6 5 5 4 5 7 5 6 8 7 9 10 9 7
9 9 8 2 7 5 5 4 11 4 6 2 6 10 13 20 25 27 22 19 16 15 13 13 13 13 15 13 14 8 13 10 8 6 6 6 4 5 5 7 7 5 4 9 7 8 7 9 8
11 10 11 10 1 6 7 7 7 11 16 11 9 13 13 15 21 24 25 22 21 18 17 14 12 11 14 13 10 10 12 10 8 5 4 5 5 4 3 4 6 6 5 10 8 9 8 8 9
15 15 16 11 6 5 9 8 7 12 15 16 14 11 15 17 25 27 27 24 25 20 18 14 10 9 12 11 10 10 11 12 10 7 5 3 3 3 3 2 4 5 6 8 10 9 8 6 7
18 17 14 10 6 5 5 7 8 10 18 22 20 12 17 19 22 27 30 26 23 24 19 15 9 5 7 11 12 13 16 15 11 8 4 3 3 4 3 3 2 2 5 6 9 9 13 8 8
21 19 12 9 4 3 8 4 8 6 20 22 22 20 20 19 21 27 30 29 23 23 22 13 11 6 7 11 12 13 15 14 10 11 8 5 4 4 5 4 3 3 5 8 8 9 6 7 6
15 10 10 8 7 7 5 2 4 6 17 22 21 19 19 18 21 28 32 30 25 24 22 16 15 11 6 9 11 14 15 15 13 13 10 7 6 5 6 5 4 2 3 5 10 11 8 10 8
12 9 5 7 6 3 9 6 4 7 8 11 19 22 19 20 23 25 27 33 28 23 20 21 18 13 8 10 11 14 15 15 15 13 11 10 8 7 6 4 4 2 3 3 7 9 8 7 13
13 13 3 2 3 5 10 9 3 7 11 15 15 20 25 21 20 23 23 27 28 27 25 23 20 18 13 10 13 15 15 15 14 14 12 11 10 7 7 6 4 4 4 5 5 8 8 9 12
14 15 7 5 5 6 15 7 6 2 2 4 7 8 19 30 24 17 22 22 23 26 22 19 20 20 17 13 15 17 17 17 16 16 16 14 13 11 10 9 8 6 5 6 7 7 5 9 12
14 15 17 5 3 4 6 4 11 8 6 3 1 7 12 22 30 25 18 22 20 20 22 21 19 19 17 15 16 19 18 18 16 15 16 15 14 15 13 12 11 10 8 7 6 5 7 8 9
14 16 10 10 4 3 3 6 6 3 7 7 4 3 13 19 22 30 27 19 25 22 18 19 18 18 16 16 18 19 19 19 18 18 17 17 17 16 18 16 15 12 10 9 8 7 7 7 9
13 11 8 9 4 7 4 2 5 8 8 6 7 7 5 19 20 23 29 28 26 27 24 24 23 21 19 18 18 19 20 20 21 21 20 19 17 17 19 19 17 15 12 11 10 10 9 9 9
10 10 12 9 6 5 7 5 2 3 5 6 8 7 7 11 24 23 26 29 22 27 27 25 26 25 20 17 17 19 19 21 23 23 22 21 19 19 17 19 19 18 16 15 13 12 12 11 10
Wind_Direction
162 173 174 181 235 285 299 299 228 147 123 170 139 137 143 134 89 98 148 151 150 150 145 142 138 138 137 135 135 129 123 115 110 103 96 90 91 99 106 115 122 126 132 133 131 128 123 122 130
151 158 167 196 302 268 345 142 151 154 170 141 151 152 176 157 57 146 154 148 150 151 144 139 138 142 141 140 140 133 114 110 108 102 96 93 91 90 98 142 163 126 126 119 127 127 126 126 126
137 137 132 5 265 250 314 171 186 165 157 154 173 163 178 198 105 150 149 145 147 148 147 144 140 140 140 144 141 123 115 114 105 99 103 97 93 98 145 141 137 136 129 123 127 127 131 121 117
133 104 84 263 288 283 280 208 200 191 180 174 180 180 188 171 132 155 149 145 145 148 148 147 146 141 138 138 132 128 122 123 118 112 106 100 111 116 110 111 109 123 139 143 136 131 128 122 117
127 106 40 352 331 301 294 225 230 170 155 174 184 185 203 163 153 156 151 147 146 149 149 150 147 141 138 137 133 133 127 121 112 104 90 108 115 108 102 99 97 106 132 143 134 128 126 125 130
132 97 60 22 5 351 18 88 128 141 144 176 193 180 157 155 156 155 152 149 149 152 152 147 145 143 140 139 137 131 123 120 96 70 102 120 114 110 101 88 85 91 109 120 124 123 122 127 125
128 93 59 29 10 360 9 61 151 161 171 204 224 221 180 153 158 157 155 152 150 155 156 148 149 142 139 143 135 129 119 109 82 89 114 127 121 114 102 93 86 90 103 112 120 124 118 119 122
148 97 78 47 28 23 356 163 161 153 144 184 202 202 179 161 158 160 162 159 158 160 162 152 152 146 142 146 141 127 124 97 93 83 117 130 131 120 109 100 95 98 100 108 119 124 122 119 117
139 103 88 53 36 35 82 126 156 148 138 142 120 142 167 161 161 167 170 166 166 165 162 155 156 150 144 145 142 124 112 100 96 93 121 133 133 126 117 109 103 103 108 112 122 123 118 115 110
151 121 92 56 39 30 61 65 157 152 158 151 141 146 166 165 167 175 177 171 166 164 164 161 157 155 145 143 143 125 120 111 106 101 116 132 132 126 122 116 109 109 113 119 122 124 126 117 90
164 140 102 45 31 26 39 74 161 191 191 155 150 151 175 172 172 176 177 169 165 166 168 166 162 159 153 147 149 132 130 119 106 103 112 127 128 124 120 121 113 106 121 121 126 127 114 119 108
173 159 127 31 13 349 334 319 345 199 202 176 155 149 189 187 179 178 180 175 172 170 171 171 169 164 162 154 156 147 137 140 120 114 118 119 124 126 124 121 108 101 120 131 126 128 123 110 112
195 174 205 329 342 325 310 307 313 156 197 199 179 175 189 194 180 176 175 177 180 181 173 172 174 165 164 171 155 155 145 139 139 121 133 126 122 131 123 120 113 98 120 119 131 128 132 114 114
199 199 213 199 127 271 267 324 326 172 169 187 184 169 162 191 187 179 183 187 192 190 178 174 179 170 170 177 167 161 167 152 145 125 129 138 139 138 135 99 123 97 114 159 136 124 128 106 110
178 230 222 188 246 202 213 265 348 188 196 205 211 193 169 184 189 188 188 191 181 182 191 181 181 174 172 180 181 162 160 156 153 141 135 146 139 148 134 152 136 154 131 130 125 144 156 121 116
212 226 203 192 213 167 202 206 325 241 217 231 217 192 182 182 188 189 188 187 176 193 180 179 179 177 175 180 192 183 167 158 158 155 144 136 128 130 133 154 151 186 169 138 135 138 149 145 126
203 182 187 170 182 179 218 265 300 259 203 210 214 200 183 180 186 189 190 182 179 170 160 168 175 181 181 179 194 193 181 183 190 163 152 141 128 123 135 144 153 162 190 182 158 142 145 151 147
187 194 179 143 186 194 245 266 264 224 176 115 245 227 199 186 188 188 188 171 166 164 163 164 177 178 178 184 182 197 194 196 192 185 154 131 131 122 146 145 151 151 182 183 174 160 159 168 166
199 207 210 168 145 305 292 288 282 243 224 247 224 221 220 202 193 194 189 175 167 164 171 164 176 186 181 186 194 204 195 208 198 195 183 128 122 117 173 162 176 182 182 185 174 156 159 164 158
225 224 225 216 245 280 291 302 301 242 225 245 249 224 221 216 200 195 196 182 182 174 164 167 167 176 183 183 179 191 209 210 206 186 208 153 158 167 184 200 186 165 179 194 188 169 161 157 164
224 228 232 229 215 269 346 301 322 233 203 224 234 224 234 234 220 201 198 199 191 183 180 169 165 174 193 198 198 197 201 207 209 179 193 161 177 185 191 213 214 201 185 188 177 159 175 180 163
232 234 235 223 283 304 352 303 321 275 209 220 228 232 230 232 230 218 209 204 199 196 184 171 161 157 206 211 207 190 201 215 228 192 212 179 172 189 180 182 186 205 201 199 189 169 165 172 174
239 229 227 240 264 290 284 253 305 267 219 224 226 231 241 234 227 222 216 210 199 191 199 192 178 181 203 223 218 203 196 207 213 212 210 208 191 203 201 171 151 122 219 217 208 198 195 201 194
214 213 225 263 248 263 231 219 320 273 284 262 249 227 234 227 216 215 218 214 203 199 190 195 194 188 203 232 229 217 209 212 216 224 214 220 211 197 197 194 174 176 154 152 181 189 196 195 174
209 221 207 113 156 203 191 197 247 298 272 264 263 246 234 224 215 220 205 204 202 200 203 206 208 200 211 229 238 229 219 219 222 217 213 227 223 198 192 188 186 172 147 167 149 169 178 180 181
211 215 192 171 175 184 166 197 178 232 349 287 258 219 216 223 222 230 218 204 199 202 198 202 208 198 200 218 232 235 224 218 222 231 233 235 228 210 205 201 193 188 169 162 177 183 172 192 191
204 205 218 211 96 140 188 202 206 239 236 216 98 250 219 217 229 238 232 219 212 203 200 199 203 202 199 215 230 235 227 220 219 228 232 227 228 225 211 209 207 194 187 185 169 166 190 194 197
212 202 180 187 133 180 89 53 353 314 253 238 259 281 228 223 221 233 238 238 222 217 204 202 198 205 195 214 227 235 231 224 221 224 231 227 228 235 227 215 211 208 202 196 186 184 186 194 200
177 175 180 184 183 157 137 86 20 1 356 317 293 299 263 224 220 219 233 231 228 225 221 223 223 215 195 200 220 229 236 233 227 225 228 231 228 231 224 221 210 214 215 221 207 202 203 203 214
120 101 177 186 178 148 130 120 90 17 9 330 309 307 278 230 218 210 217 227 226 225 230 227 227 226 217 208 222 229 232 237 234 233 230 229 232 233 228 225 215 213 218 225 229 223 216 216 219